| time (UTC) | temp F | wind direction | speed MPH | gust MPH | rain 1hr in | rain 24hr in | rain mn in | humidity % | barometer mb |
| 20260507083517 | 50 | 317 | 1.0 | 5.0 | 0.00 | 0.02 | 0.01 | 88 | 1019.3 |
| 20260507082545 | 50 | 313 | 2.0 | 5.0 | 0.00 | 0.02 | 0.01 | 89 | 1019.2 |
| 20260507081517 | 50 | 327 | 3.0 | 8.0 | 0.00 | 0.02 | 0.01 | 89 | 1019.0 |
| 20260507080525 | 50 | 324 | 0.0 | 5.0 | 0.00 | 0.02 | 0.01 | 89 | 1019.0 |
| 20260507075517 | 50 | 304 | 1.0 | 8.0 | 0.00 | 0.02 | 0.01 | 88 | 1019.0 |
| 20260507074525 | 50 | 300 | 4.0 | 8.0 | 0.00 | 0.02 | 0.01 | 86 | 1018.7 |
| 20260507073516 | 51 | 291 | 3.0 | 8.0 | 0.00 | 0.02 | 0.01 | 85 | 1018.6 |
| 20260507072524 | 51 | 340 | 4.0 | 10.0 | 0.00 | 0.02 | 0.01 | 84 | 1018.3 |
| 20260507071517 | 50 | 279 | 3.0 | 10.0 | 0.00 | 0.02 | 0.01 | 85 | 1018.3 |
| 20260507070525 | 50 | 264 | 3.0 | 8.0 | 0.00 | 0.02 | 0.01 | 85 | 1018.3 |
| 20260507065516 | 50 | 273 | 3.0 | 10.0 | 0.00 | 0.02 | 0.01 | 85 | 1018.0 |
| 20260507064524 | 50 | 266 | 2.0 | 8.0 | 0.00 | 0.02 | 0.01 | 86 | 1018.1 |
| 20260507063531 | 50 | 305 | 2.0 | 8.0 | 0.00 | 0.02 | 0.01 | 86 | 1017.9 |
| 20260507062522 | 50 | 278 | 2.0 | 8.0 | 0.00 | 0.02 | 0.01 | 86 | 1017.9 |
| 20260507061530 | 50 | 273 | 3.0 | 10.0 | 0.00 | 0.02 | 0.01 | 87 | 1017.9 |
| 20260507060543 | 50 | 266 | 2.0 | 8.0 | 0.00 | 0.02 | 0.01 | 87 | 1017.7 |
| 20260507055531 | 50 | 253 | 3.0 | 8.0 | 0.00 | 0.02 | 0.01 | 87 | 1017.7 |
| 20260507054543 | 50 | 262 | 2.0 | 8.0 | 0.00 | 0.02 | 0.01 | 88 | 1017.5 |
| 20260507053530 | 49 | 324 | 3.0 | 8.0 | 0.00 | 0.02 | 0.01 | 87 | 1017.3 |
| 20260507052522 | 49 | 315 | 3.0 | 8.0 | 0.00 | 0.02 | 0.01 | 88 | 1017.2 |
| 20260507051531 | 49 | 306 | 3.0 | 8.0 | 0.00 | 0.02 | 0.01 | 88 | 1017.1 |
| 20260507050522 | 49 | 295 | 2.0 | 8.0 | 0.00 | 0.02 | 0.01 | 89 | 1017.0 |
| 20260507045551 | 49 | 309 | 4.0 | 10.0 | 0.00 | 0.02 | 0.01 | 89 | 1016.7 |
| 20260507044523 | 49 | 321 | 4.0 | 10.0 | 0.00 | 0.02 | 0.01 | 89 | 1016.7 |
| 20260507043530 | 49 | 316 | 6.0 | 15.0 | 0.00 | 0.02 | 0.01 | 90 | 1016.6 |
| 20260507042543 | 49 | 314 | 5.0 | 10.0 | 0.00 | 0.02 | 0.01 | 91 | 1016.5 |
| 20260507041551 | 49 | 319 | 5.0 | 10.0 | 0.00 | 0.02 | 0.01 | 92 | 1016.3 |
| 20260507040542 | 48 | 307 | 3.0 | 8.0 | 0.00 | 0.02 | 0.01 | 93 | 1016.3 |
| 20260507035530 | 48 | 298 | 4.0 | 10.0 | 0.00 | 0.02 | 0.01 | 93 | 1016.3 |
| 20260507034543 | 49 | 299 | 3.0 | 8.0 | 0.00 | 0.02 | 0.01 | 93 | 1016.2 |
| 20260507033530 | 49 | 316 | 2.0 | 5.0 | 0.00 | 0.02 | 0.01 | 94 | 1016.3 |
| 20260507032522 | 49 | 304 | 3.0 | 10.0 | 0.00 | 0.02 | 0.01 | 94 | 1016.3 |
| 20260507031530 | 49 | 299 | 3.0 | 8.0 | 0.00 | 0.02 | 0.01 | 94 | 1016.1 |
| 20260507030603 | 49 | 295 | 2.0 | 8.0 | 0.00 | 0.02 | 0.01 | 95 | 1016.0 |
| 20260507025530 | 49 | 284 | 2.0 | 8.0 | 0.01 | 0.02 | 0.01 | 95 | 1016.0 |
| 20260507024543 | 49 | 274 | 2.0 | 8.0 | 0.01 | 0.02 | 0.01 | 94 | 1016.0 |
| 20260507023530 | 49 | 0.0 | 0.0 | 0.01 | 0.02 | 0.01 | 94 | 1016.0 | |
| 20260507022522 | 49 | 291 | 3.0 | 8.0 | 0.01 | 0.02 | 0.01 | 94 | 1016.1 |
| 20260507021530 | 49 | 290 | 2.0 | 8.0 | 0.01 | 0.02 | 0.01 | 93 | 1015.8 |
| 20260507020522 | 49 | 314 | 2.0 | 5.0 | 0.01 | 0.02 | 0.01 | 93 | 1015.8 |
| 20260507015530 | 49 | 306 | 3.0 | 8.0 | 0.00 | 0.01 | 0.00 | 92 | 1015.7 |
| 20260507014522 | 49 | 301 | 2.0 | 8.0 | 0.00 | 0.01 | 0.00 | 92 | 1015.6 |
| 20260507013530 | 49 | 314 | 2.0 | 8.0 | 0.00 | 0.01 | 0.00 | 91 | 1015.6 |
| 20260507012522 | 50 | 311 | 4.0 | 10.0 | 0.00 | 0.01 | 0.00 | 91 | 1015.5 |
| 20260507011530 | 50 | 290 | 3.0 | 8.0 | 0.00 | 0.01 | 0.00 | 90 | 1015.6 |
| 20260507010522 | 51 | 325 | 5.0 | 10.0 | 0.00 | 0.01 | 0.00 | 87 | 1015.4 |
| 20260507005551 | 51 | 301 | 3.0 | 8.0 | 0.00 | 0.01 | 0.00 | 85 | 1015.4 |
| 20260507004522 | 51 | 320 | 5.0 | 10.0 | 0.00 | 0.01 | 0.00 | 84 | 1015.4 |
| 20260507003530 | 51 | 328 | 3.0 | 8.0 | 0.00 | 0.01 | 0.00 | 84 | 1015.3 |
| 20260507002522 | 51 | 340 | 4.0 | 10.0 | 0.00 | 0.01 | 0.00 | 84 | 1015.2 |
| 20260507001530 | 51 | 320 | 3.0 | 8.0 | 0.00 | 0.01 | 0.00 | 85 | 1015.4 |
| 20260507000522 | 51 | 331 | 4.0 | 10.0 | 0.00 | 0.01 | 0.00 | 85 | 1015.4 |
| 20260506235530 | 51 | 313 | 3.0 | 10.0 | 0.00 | 0.01 | 0.00 | 85 | 1015.4 |
| 20260506234522 | 51 | 324 | 4.0 | 10.0 | 0.00 | 0.01 | 0.00 | 84 | 1015.3 |
| 20260506233530 | 52 | 295 | 4.0 | 10.0 | 0.00 | 0.01 | 0.00 | 85 | 1015.1 |
| 20260506232522 | 52 | 305 | 3.0 | 8.0 | 0.00 | 0.01 | 0.00 | 85 | 1015.1 |
| 20260506231530 | 52 | 320 | 3.0 | 10.0 | 0.00 | 0.01 | 0.00 | 85 | 1015.0 |
| 20260506230522 | 52 | 337 | 3.0 | 8.0 | 0.00 | 0.03 | 0.00 | 86 | 1015.0 |
| 20260506225530 | 52 | 311 | 2.0 | 8.0 | 0.00 | 0.03 | 0.00 | 86 | 1014.8 |
| 20260506224522 | 53 | 306 | 2.0 | 8.0 | 0.00 | 0.03 | 0.00 | 86 | 1014.7 |
| 20260506223530 | 53 | 318 | 2.0 | 8.0 | 0.00 | 0.03 | 0.00 | 86 | 1014.7 |
| 20260506222522 | 53 | 313 | 3.0 | 8.0 | 0.00 | 0.03 | 0.00 | 87 | 1014.7 |
| 20260506221550 | 53 | 337 | 4.0 | 8.0 | 0.00 | 0.03 | 0.00 | 86 | 1014.7 |
| 20260506220522 | 53 | 334 | 3.0 | 8.0 | 0.00 | 0.03 | 0.00 | 87 | 1014.6 |
| 20260506215528 | 53 | 314 | 3.0 | 8.0 | 0.00 | 0.03 | 0.03 | 86 | 1014.4 |
| 20260506214520 | 53 | 319 | 3.0 | 10.0 | 0.00 | 0.03 | 0.03 | 87 | 1014.4 |
| 20260506213528 | 53 | 307 | 3.0 | 8.0 | 0.00 | 0.03 | 0.03 | 87 | 1014.4 |
| 20260506212520 | 53 | 303 | 2.0 | 8.0 | 0.00 | 0.03 | 0.03 | 87 | 1014.3 |
| 20260506211528 | 53 | 266 | 3.0 | 8.0 | 0.00 | 0.03 | 0.03 | 87 | 1014.3 |
| 20260506210520 | 53 | 276 | 1.0 | 5.0 | 0.00 | 0.03 | 0.03 | 86 | 1014.2 |
| 20260506205528 | 53 | 309 | 3.0 | 8.0 | 0.00 | 0.03 | 0.03 | 86 | 1014.2 |
| 20260506204540 | 53 | 300 | 4.0 | 8.0 | 0.00 | 0.03 | 0.03 | 86 | 1014.1 |
| 20260506203528 | 53 | 286 | 4.0 | 13.0 | 0.00 | 0.03 | 0.03 | 86 | 1013.8 |
| 20260506202520 | 53 | 302 | 4.0 | 10.0 | 0.00 | 0.03 | 0.03 | 87 | 1013.8 |
| 20260506201548 | 54 | 308 | 3.0 | 8.0 | 0.00 | 0.03 | 0.03 | 87 | 1013.7 |
| 20260506200519 | 54 | 281 | 4.0 | 10.0 | 0.00 | 0.03 | 0.03 | 87 | 1013.7 |
| 20260506195548 | 54 | 271 | 5.0 | 13.0 | 0.00 | 0.03 | 0.03 | 88 | 1013.6 |
| 20260506194519 | 54 | 271 | 4.0 | 8.0 | 0.00 | 0.03 | 0.03 | 88 | 1013.3 |
| 20260506193528 | 54 | 244 | 2.0 | 5.0 | 0.00 | 0.03 | 0.03 | 88 | 1013.3 |
| 20260506190430 | 54 | 262 | 2.0 | 5.0 | 0.00 | 0.03 | 0.03 | 88 | 998.4 |
| 20260506185450 | 55 | 277 | 5.0 | 10.0 | 0.00 | 0.03 | 0.03 | 88 | 998.2 |
| 20260506184330 | 55 | 310 | 6.0 | 15.0 | 0.00 | 0.03 | 0.03 | 88 | 998.1 |
| 20260506183443 | 55 | 325 | 7.0 | 13.0 | 0.00 | 0.03 | 0.03 | 87 | 998.0 |
| 20260506182325 | 55 | 351 | 4.0 | 8.0 | 0.00 | 0.03 | 0.03 | 88 | 997.9 |
| 20260506181350 | 55 | 325 | 6.0 | 13.0 | 0.01 | 0.03 | 0.03 | 88 | 998.1 |
| 20260506180350 | 55 | 331 | 5.0 | 10.0 | 0.01 | 0.03 | 0.03 | 89 | 998.0 |
| 20260506175416 | 55 | 338 | 5.0 | 10.0 | 0.01 | 0.03 | 0.03 | 89 | 997.8 |
| 20260506174330 | 56 | 322 | 5.0 | 10.0 | 0.01 | 0.03 | 0.03 | 90 | 997.6 |
| 20260506173330 | 57 | 313 | 4.0 | 8.0 | 0.01 | 0.03 | 0.03 | 89 | 997.4 |
| 20260506172649 | 57 | 299 | 6.0 | 10.0 | 0.01 | 0.03 | 0.03 | 88 | 997.4 |
| 20260506171353 | 57 | 327 | 5.0 | 10.0 | 0.00 | 0.02 | 0.02 | 87 | 997.4 |
| 20260506170604 | 58 | 308 | 6.0 | 10.0 | 0.00 | 0.02 | 0.02 | 87 | 997.4 |
| 20260506165416 | 58 | 262 | 5.0 | 8.0 | 0.00 | 0.02 | 0.02 | 87 | 997.1 |
| 20260506164610 | 59 | 264 | 9.0 | 10.0 | 0.00 | 0.02 | 0.02 | 86 | 997.1 |
| 20260506163310 | 60 | 262 | 6.0 | 13.0 | 0.00 | 0.04 | 0.02 | 83 | 997.1 |
| 20260506162316 | 60 | 295 | 5.0 | 8.0 | 0.00 | 0.04 | 0.02 | 76 | 997.2 |
| 20260506161416 | 60 | 262 | 6.0 | 10.0 | 0.00 | 0.04 | 0.02 | 76 | 997.2 |
| 20260506160349 | 61 | 272 | 7.0 | 13.0 | 0.00 | 0.04 | 0.02 | 76 | 997.3 |
| 20260506155650 | 62 | 254 | 5.0 | 10.0 | 0.00 | 0.04 | 0.02 | 73 | 997.2 |
| 20260506154329 | 62 | 268 | 7.0 | 15.0 | 0.00 | 0.04 | 0.02 | 72 | 997.1 |
| 20260506153330 | 62 | 256 | 8.0 | 13.0 | 0.00 | 0.04 | 0.02 | 70 | 997.0 |
| 20260506152330 | 63 | 272 | 8.0 | 13.0 | 0.00 | 0.04 | 0.02 | 69 | 996.9 |
| 20260506151429 | 63 | 283 | 9.0 | 10.0 | 0.00 | 0.05 | 0.02 | 68 | 996.9 |
| 20260506150409 | 64 | 237 | 3.0 | 8.0 | 0.00 | 0.07 | 0.02 | 66 | 996.8 |
| 20260506145330 | 64 | 229 | 5.0 | 13.0 | 0.00 | 0.08 | 0.02 | 65 | 996.7 |
| 20260506144315 | 65 | 234 | 4.0 | 8.0 | 0.00 | 0.12 | 0.02 | 65 | 996.8 |
| 20260506143556 | 65 | 240 | 5.0 | 10.0 | 0.00 | 0.25 | 0.02 | 64 | 996.7 |
| 20260506142355 | 66 | 220 | 5.0 | 10.0 | 0.00 | 0.33 | 0.02 | 61 | 996.7 |
| 20260506141330 | 66 | 196 | 6.0 | 10.0 | 0.00 | 0.35 | 0.02 | 62 | 996.9 |
| 20260506140329 | 66 | 231 | 5.0 | 10.0 | 0.00 | 0.35 | 0.02 | 62 | 996.5 |
| 20260506135350 | 66 | 220 | 5.0 | 15.0 | 0.00 | 0.35 | 0.02 | 59 | 996.6 |
| 20260506134329 | 66 | 230 | 5.0 | 13.0 | 0.00 | 0.35 | 0.02 | 60 | 996.6 |
| 20260506133315 | 66 | 225 | 6.0 | 13.0 | 0.00 | 0.35 | 0.02 | 60 | 996.6 |
| 20260506132309 | 65 | 239 | 5.0 | 8.0 | 0.00 | 0.35 | 0.02 | 61 | 996.6 |
| 20260506131349 | 65 | 206 | 6.0 | 8.0 | 0.00 | 0.35 | 0.02 | 63 | 996.9 |
| 20260506130349 | 65 | 204 | 7.0 | 15.0 | 0.00 | 0.35 | 0.02 | 62 | 996.6 |
| 20260506125437 | 64 | 195 | 11.0 | 17.0 | 0.00 | 0.35 | 0.02 | 63 | 996.6 |
| 20260506124349 | 64 | 196 | 5.0 | 13.0 | 0.00 | 0.35 | 0.02 | 64 | 996.7 |
| 20260506123329 | 64 | 240 | 3.0 | 5.0 | 0.00 | 0.35 | 0.02 | 65 | 996.9 |
| 20260506122429 | 64 | 260 | 7.0 | 10.0 | 0.00 | 0.35 | 0.02 | 64 | 996.6 |
| 20260506121315 | 64 | 188 | 5.0 | 10.0 | 0.00 | 0.35 | 0.02 | 64 | 996.9 |
| 20260506120329 | 64 | 212 | 6.0 | 8.0 | 0.00 | 0.35 | 0.02 | 65 | 996.6 |
| 20260506115249 | 63 | 218 | 7.0 | 13.0 | 0.00 | 0.35 | 0.02 | 64 | 996.9 |
| 20260506114349 | 63 | 274 | 3.0 | 5.0 | 0.00 | 0.35 | 0.02 | 65 | 996.8 |
| 20260506113416 | 63 | 215 | 4.0 | 10.0 | 0.00 | 0.35 | 0.02 | 66 | 996.9 |
| 20260506112310 | 63 | 226 | 4.0 | 13.0 | 0.00 | 0.35 | 0.02 | 67 | 996.9 |
| 20260506111249 | 63 | 204 | 8.0 | 15.0 | 0.00 | 0.35 | 0.02 | 66 | 997.0 |
| 20260506110249 | 63 | 204 | 4.0 | 8.0 | 0.00 | 0.35 | 0.02 | 68 | 996.8 |
| 20260506105249 | 64 | 238 | 5.0 | 10.0 | 0.00 | 0.35 | 0.02 | 66 | 997.0 |
| 20260506104729 | 64 | 240 | 5.0 | 10.0 | 0.00 | 0.35 | 0.02 | 65 | 996.9 |
| 20260506103329 | 63 | 221 | 3.0 | 5.0 | 0.00 | 0.35 | 0.02 | 66 | 997.2 |
| 20260506102309 | 63 | 193 | 6.0 | 10.0 | 0.00 | 0.35 | 0.02 | 65 | 997.1 |
| 20260506101309 | 63 | 225 | 9.0 | 17.0 | 0.00 | 0.35 | 0.02 | 65 | 997.1 |
| 20260506100309 | 62 | 224 | 6.0 | 10.0 | 0.00 | 0.35 | 0.02 | 68 | 997.1 |
| 20260506095309 | 61 | 214 | 8.0 | 15.0 | 0.00 | 0.35 | 0.02 | 70 | 997.1 |
| 20260506094309 | 61 | 192 | 3.0 | 8.0 | 0.00 | 0.35 | 0.02 | 73 | 997.1 |
| 20260506093309 | 61 | 191 | 5.0 | 10.0 | 0.00 | 0.35 | 0.02 | 74 | 997.2 |
| 20260506092242 | 61 | 156 | 3.0 | 8.0 | 0.00 | 0.35 | 0.02 | 74 | 997.2 |
| 20260506091709 | 61 | 201 | 5.0 | 10.0 | 0.00 | 0.35 | 0.02 | 73 | 997.2 |
| 20260506090329 | 61 | 237 | 7.0 | 13.0 | 0.00 | 0.35 | 0.02 | 72 | 997.0 |
| 20260506084829 | 62 | 230 | 5.0 | 13.0 | 0.00 | 0.35 | 0.02 | 71 | 997.0 |
| 20260506083809 | 62 | 245 | 7.0 | 10.0 | 0.00 | 0.35 | 0.02 | 72 | 996.9 |